469 
ASUS46 KSEW 181110
RWRWA 

WASHINGTON REGIONAL WEATHER ROUNDUP
NATIONAL WEATHER SERVICE SEATTLE WA
300 AM PST MON FEB 18 2019

NOTE:"FAIR" INDICATES FEW OR NO CLOUDS BELOW 12,000 FEET WITH NO 
SIGNIFICANT WEATHER AND/OR OBSTRUCTIONS TO VISIBILITY.

WAZ507-509-555>559-181200-
SEATTLE, TACOMA, EVERETT, AND VICINITY
  
CITY           SKY/WX    TMP DP  RH WIND       PRES   REMARKS
EVERETT        PTCLDY    33  31  92 SE5       30.34S                  
BOEING FIELD   CLOUDY    35  33  92 SE7       30.37S                  
RENTON         CLOUDY    35  32  88 CALM      30.37S                  
SEATAC AIRPORT CLOUDY    36  32  85 SE5       30.35S                  
JBLM-MCCHORD   CLOUDY    34  34 100 CALM      30.36S                  
PUYALLUP       CLOUDY    34  34 100 CALM      30.36S FOG              
BREMERTON      CLOUDY    34  32  93 CALM      30.36S                  
JBLM-FT LEWIS  NOT AVBL                                               
TACOMA NARROWS CLOUDY    37  35  92 CALM      30.36S                  
$$
 
WAZ001-503-506-510-514-515-181200-
NORTH INTERIOR
  
CITY           SKY/WX    TMP DP  RH WIND       PRES   REMARKS
BELLINGHAM     CLEAR     28  17  63 CALM      30.36S                  
FRIDAY HARBOR  CLEAR     30  21  69 CALM      30.37S                  
EASTSOUND      CLEAR     37  19  48 CALM      30.36F                  
PORT ANGELES   CLOUDY    35  32  88 S3        30.37R                  
EDIZ HOOK      CLOUDY    40  33  78 N6        30.38R                  
PORT TOWNSEND  MOCLDY    30  30 100 CALM      30.35F                  
NAS WHIDBEY    NOT AVBL                                               
ARLINGTON      MOCLDY    24  23  96 CALM      30.37S FOG              
BURLINGTON     PTCLDY    30  27  86 NE6       30.37S                  
$$
 
WAZ020-022-039-040-504-511-512-181200-
SOUTHWEST INTERIOR
  
CITY           SKY/WX    TMP DP  RH WIND       PRES   REMARKS
SHELTON        MOCLDY    27  23  85 CALM      30.34S FOG              
OLYMPIA        CLOUDY    31  30  96 W5        30.36S                  
CHEHALIS       CLOUDY    32  32 100 S5        30.37S                  
KELSO          CLOUDY    30  29  96 CALM      30.39S                  
VANCOUVER      CLEAR     27  25  92 CALM      30.38R                  
SCAPPOOSE, OR  FOG       30  26  85 CALM      30.38R VSB 1/2          
PORTLAND, OR   PTCLDY    31  28  89 CALM      30.39R FOG              
$$
 
WAZ021-516-517-181200-
WASHINGTON COAST
  
CITY           SKY/WX    TMP DP  RH WIND       PRES   REMARKS
FORKS          CLOUDY    31  28  89 CALM      30.35S                  
HOQUIAM        CLEAR     31  30  96 CALM      30.36S                  
ASTORIA, OR    CLOUDY    32  31  96 SE3       30.37S                  
$$
 
WAZ019-023-024-040-567>569-181200-
CASCADE MOUNTAINS AND COLUMBIA GORGE
  
CITY           SKY/WX    TMP DP  RH WIND       PRES   REMARKS
STAMPEDE PASS  CLOUDY    23  20  88 VRB3      30.17F FOG              
TROUTDALE, OR  CLOUDY    34  32  92 CALM      30.38R                  
HOOD RIVER, OR CLOUDY    32  32 100 CALM      30.35S FOG              
THE DALLES, OR CLOUDY    33  31  92 CALM      30.37R                  
$$

WAZ026-027-041>044-520-521-181200-
EAST SLOPES
  
CITY           SKY/WX    TMP DP  RH WIND       PRES   REMARKS
OMAK           CLEAR     21  11  65 NW15      30.34F WCI   8          
WENATCHEE      CLEAR     17  10  74 E7        30.32S                  
ELLENSBURG     CLOUDY    26  19  74 NE6       30.29S                  
YAKIMA         CLOUDY    28  26  92 NW3       30.34S                  
SUNNYSIDE ARPT CLOUDY    29  23  75 CALM      30.36                   
YAKIMA TC      PTSUNNY   26  21  82 E5        30.30S                  
$$

WAZ028-034-035-181200-
COLUMBIA BASIN
  
CITY           SKY/WX    TMP DP  RH WIND       PRES   REMARKS
EPHRATA        CLEAR     14   7  73 N3        30.33S                  
MOSES LAKE     CLEAR    N/A N/A N/A NW3       30.34S                  
PASCO          CLOUDY    26  20  77 N3        30.38S                  
RICHLAND ARPT  MOSUNNY   25  21  87 CALM      30.38                   
HERMISTON, OR  CLOUDY    29  19  66 N9        30.35R                  
$$

WAZ036>038-181200-
NORTHEAST WASHINGTON
  
CITY           SKY/WX    TMP DP  RH WIND       PRES   REMARKS
SPOKANE GEIGER PTCLDY     8  -1  66 N8        30.25S                  
SPOKANE FELTS  CLEAR     10   6  84 CALM      30.29S                  
FAIRCHILD AFB  CLEAR     12   2  65 NE8       30.23S                  
COEURDALENE,ID CLEAR     10   2  69 N9        30.26S                  
DEER PARK      PTCLDY     1  -3  83 CALM      30.28R                  
$$

WAZ029>033-181200-
SOUTHEAST WASHINGTON
  
CITY           SKY/WX    TMP DP  RH WIND       PRES   REMARKS
PULLMAN        CLEAR     11   6  81 N13       30.20R WCI  -4          
LEWISTON, ID   CLOUDY    26  18  71 NW8       30.25R                  
WALLA WALLA    CLOUDY    27  23  85 S9        30.30R                  
PENDLETON, OR  CLOUDY    26  24  92 NW12      30.28S WCI  16          
$$